Stations météo

réclame
Mon MeteoGroup
Ploumanach, France (7117): Température de l'air & dewpoint: 18.06.2019 11:00:00 - 24.06.2019 11:00:00 (CEST)Ploumanach, France (7117): Vitesse du vent & gusts: 18.06.2019 11:00:00 - 24.06.2019 11:00:00 (CEST)Ploumanach, France (7117): Direction du vent: 18.06.2019 11:00:00 - 24.06.2019 11:00:00 (CEST)Ploumanach, France (7117): reduced air pressure: 18.06.2019 11:00:00 - 24.06.2019 11:00:00 (CEST)Ploumanach, France (7117): visibility: 18.06.2019 11:00:00 - 24.06.2019 11:00:00 (CEST)Ploumanach, France (7117): Quantités de précipitations: 18.06.2019 11:00:00 - 24.06.2019 11:00:00 (CEST)
Date & Time tt [°C] td [°C] ff [km/h] ff [knt] fx [km/h] fx [knt] dd ppp [hPa] vv [km] rr [mm]
24.06.2019 11:00:00 16,8 15,1 5 3 16 9 NNW 1017,0 3,0 0,0
24.06.2019 10:00:00 15,3 14,2 10 5 18 10 W 1016,8 - 0,0
24.06.2019 09:00:00 15,4 13,9 7 4 13 7 WNW 1016,3 - 0,0
24.06.2019 08:00:00 15,5 14,2 4 2 8 4 WSW 1015,8 6 0,0
24.06.2019 07:00:00 15,0 13,7 10 5 18 10 SSW 1015,6 - 0,0
24.06.2019 06:00:00 14,4 13,9 10 6 16 9 SW 1014,8 - 0,0
24.06.2019 05:00:00 14,5 14,0 6 3 22 12 SSW 1014,7 - 0,0
24.06.2019 04:00:00 14,8 14,2 13 7 24 13 SW 1014,4 - 0,0
24.06.2019 03:00:00 14,9 14,6 17 9 27 14 WSW 1014,0 - 0,0
24.06.2019 02:00:00 15,1 14,5 18 10 32 17 W 1014,0 - 0,0
24.06.2019 01:00:00 15,0 14,5 19 10 33 18 WSW 1013,7 - 0,0
24.06.2019 00:00:00 15,6 14,6 21 11 31 17 WSW 1013,5 - 0,0
23.06.2019 23:00:00 16,5 14,7 16 8 29 16 W 1012,8 - 0,0
23.06.2019 22:00:00 19,6 16,6 2 1 9 5 SW 1012,0 - 0,0
23.06.2019 21:00:00 18,8 16,4 5 3 10 5 ESE 1011,7 - 0,0
23.06.2019 20:00:00 20,3 16,7 5 3 14 8 E 1011,1 - 0,0
23.06.2019 19:00:00 19,9 16,3 5 3 9 5 NE 1011,1 - 0,0
23.06.2019 18:00:00 21,3 17,1 5 3 16 9 ESE 1011,1 - 0,0
23.06.2019 17:00:00 19,3 16,1 11 6 28 15 E 1011,3 15 0,0
23.06.2019 16:00:00 17,2 15,2 11 6 27 14 E 1011,4 - 0,0
23.06.2019 15:00:00 16,9 15,6 16 9 24 13 E 1011,6 - 0,0
23.06.2019 14:00:00 16,4 15,6 7 4 14 7 ENE 1012,1 - 0,2
23.06.2019 13:00:00 15,8 15,3 8 4 19 10 E 1012,9 - 0,4
23.06.2019 12:00:00 16,3 15,2 8 4 17 9 ENE 1012,7 - 0,2
23.06.2019 11:00:00 16,9 14,5 9 5 19 10 ESE 1013,3 20 0,0
23.06.2019 10:00:00 17,0 13,9 12 7 18 10 ESE 1014,0 - 0,0
23.06.2019 09:00:00 17,1 13,4 9 5 19 11 ESE 1013,1 - 0,0
23.06.2019 08:00:00 16,2 13,1 11 6 22 12 ESE 1013,1 15 0,0
23.06.2019 07:00:00 16,0 13,1 13 7 21 11 ESE 1013,0 - 0,0
23.06.2019 06:00:00 15,7 13,2 13 7 22 12 E 1013,2 - 0,0
23.06.2019 05:00:00 16,1 12,6 14 8 23 12 E 1013,5 - 0,0
23.06.2019 04:00:00 16,1 12,6 13 7 25 14 E 1013,8 - 0,0
23.06.2019 03:00:00 16,3 12,3 14 8 28 15 ESE 1014,7 - 0,0
23.06.2019 02:00:00 16,6 11,9 19 10 29 16 E 1014,9 - 0,0
23.06.2019 01:00:00 16,7 12,0 15 8 37 20 ESE 1015,5 - 0,0
23.06.2019 00:00:00 16,7 12,0 20 11 34 18 E 1015,7 - 0,0
22.06.2019 23:00:00 16,2 12,4 12 6 27 15 E 1015,9 - 0,0
22.06.2019 22:00:00 17,4 12,1 19 11 34 18 E 1015,8 - 0,0
22.06.2019 21:00:00 17,8 12,7 16 9 32 17 E 1015,8 - 0,0
22.06.2019 20:00:00 19,0 12,3 18 10 31 17 E 1016,0 25 0,0
22.06.2019 19:00:00 20,3 12,8 15 8 32 17 E 1015,7 - 0,0
22.06.2019 18:00:00 20,9 14,3 11 6 27 14 ENE 1016,3 - 0,0
22.06.2019 17:00:00 21,6 13,5 13 7 34 18 ENE 1016,5 20 0,0
22.06.2019 16:00:00 20,6 14,5 16 9 27 15 ENE 1016,7 - 0,0
22.06.2019 15:00:00 18,9 14,4 10 5 26 14 ENE 1017,3 - 0,0
22.06.2019 14:00:00 19,1 15,0 9 5 30 16 ENE 1017,8 25 0,0
22.06.2019 13:00:00 19,0 14,3 17 9 27 14 NE 1018,2 - 0,0
22.06.2019 12:00:00 19,3 13,7 13 7 28 15 ENE 1018,7 - 0,0
22.06.2019 11:00:00 19,5 13,4 13 7 25 13 E 1019,1 15 0,0
22.06.2019 10:00:00 16,6 13,3 16 9 29 15 E 1019,5 - 0,0
22.06.2019 09:00:00 13,9 12,9 20 11 29 16 ESE 1020,0 - 0,0
22.06.2019 08:00:00 12,4 11,6 14 8 26 14 E 1020,4 3,0 0,0
22.06.2019 07:00:00 12,3 11,8 16 9 23 13 ESE 1020,4 - 0,0
22.06.2019 06:00:00 11,5 11,2 11 6 14 8 E 1020,5 - 0,0
22.06.2019 05:00:00 11,8 11,2 9 5 14 7 ESE 1021,2 - 0,2
22.06.2019 04:00:00 11,9 11,6 5 3 11 6 E 1021,7 - 0,0
22.06.2019 03:00:00 12,1 11,5 8 5 13 7 ESE 1021,8 - 0,0
22.06.2019 02:00:00 12,0 11,7 6 3 8 5 E 1022,1 - 0,0
22.06.2019 01:00:00 12,6 12,0 5 3 8 4 SE 1022,4 - 0,0
22.06.2019 00:00:00 12,5 11,9 5 3 6 3 ESE 1022,6 - 0,0
21.06.2019 23:00:00 12,4 11,3 0 0 5 3 N 1022,8 - 0,0
21.06.2019 22:00:00 14,6 12,1 4 2 11 6 WNW 1022,9 - 0,0
21.06.2019 21:00:00 16,2 12,0 7 4 15 8 NNW 1022,5 - 0,0
21.06.2019 20:00:00 17,3 11,8 8 5 17 9 N 1022,4 25 0,0
21.06.2019 19:00:00 17,7 12,6 10 6 18 10 N 1022,5 - 0,0
21.06.2019 18:00:00 17,6 12,1 10 5 22 12 NW 1022,5 - 0,0
21.06.2019 17:00:00 17,3 12,0 14 7 23 12 NW 1022,4 - 0,0
21.06.2019 16:00:00 17,4 10,7 13 7 22 12 NW 1022,2 - 0,0
21.06.2019 15:00:00 17,4 12,1 12 7 20 11 NW 1022,2 - 0,0
21.06.2019 14:00:00 17,1 10,9 13 7 22 12 WNW 1022,2 25 0,0
21.06.2019 13:00:00 17,3 11,8 12 6 22 12 WNW 1022,0 - 0,0
21.06.2019 12:00:00 16,5 11,6 13 7 22 12 WNW 1021,9 - 0,0
21.06.2019 11:00:00 16,5 12,3 13 7 22 12 W 1021,7 25 0,0
21.06.2019 10:00:00 15,0 11,6 11 6 19 11 W 1021,6 - 0,0
21.06.2019 09:00:00 14,5 12,2 10 5 17 9 WSW 1021,4 - 0,0
21.06.2019 08:00:00 12,4 11,5 10 5 16 9 SSW 1021,0 12 0,2
21.06.2019 07:00:00 11,1 10,6 11 6 16 9 SSW 1020,6 - 0,0
21.06.2019 06:00:00 11,1 10,8 11 6 18 10 SW 1020,5 - 0,0
21.06.2019 05:00:00 11,1 10,9 12 6 16 9 SW 1020,2 - 0,0
21.06.2019 04:00:00 11,5 11,2 11 6 16 8 SW 1020,0 - 0,0
21.06.2019 03:00:00 11,5 11,0 11 6 18 10 SW 1020,0 - 0,2
21.06.2019 02:00:00 11,8 11,2 11 6 18 10 SW 1020,1 - 0,0
21.06.2019 01:00:00 11,8 11,3 11 6 17 9 SW 1020,0 - 0,0
21.06.2019 00:00:00 12,2 11,1 9 5 18 10 SW 1019,7 - 0,0
20.06.2019 23:00:00 12,9 11,5 13 7 26 14 W 1019,3 - 0,0
20.06.2019 22:00:00 14,0 11,5 16 9 29 16 W 1018,9 - 0,0
20.06.2019 21:00:00 15,5 11,7 16 9 37 20 W 1018,7 - 0,0
20.06.2019 20:00:00 16,4 11,5 19 11 36 20 W 1018,5 25 0,0
20.06.2019 19:00:00 16,7 12,2 19 10 37 20 W 1018,3 - 0,0
20.06.2019 18:00:00 17,0 12,3 22 12 38 21 W 1018,2 - 0,0
20.06.2019 17:00:00 17,3 12,6 21 12 42 23 W 1018,0 25 0,0
20.06.2019 16:00:00 18,2 12,4 21 11 41 22 W 1017,7 - 0,0
20.06.2019 15:00:00 17,8 10,9 25 13 37 20 W 1017,5 - 0,0
20.06.2019 14:00:00 17,5 11,3 21 11 36 20 W 1017,5 25 0,0
20.06.2019 13:00:00 17,1 12,2 20 11 39 21 W 1017,4 - 0,0
20.06.2019 12:00:00 16,6 12,3 21 11 37 20 W 1017,0 - 0,0
20.06.2019 11:00:00 15,6 12,5 23 12 40 21 WSW 1016,7 25 0,0
20.06.2019 10:00:00 14,6 11,9 16 9 30 16 WSW 1016,6 - 0,0
20.06.2019 09:00:00 14,3 11,6 18 10 32 17 WSW 1016,1 - 0,0
20.06.2019 08:00:00 12,8 11,2 19 10 29 16 WSW 1015,9 25 0,0
20.06.2019 07:00:00 11,9 11,4 16 9 23 12 SW 1015,7 - 0,0
20.06.2019 06:00:00 11,7 11,2 12 7 24 13 WSW 1015,3 - 0,0
20.06.2019 05:00:00 12,1 11,2 14 7 23 13 WSW 1015,2 - 0,0
20.06.2019 04:00:00 12,0 11,1 13 7 24 13 WSW 1015,0 - 0,2
20.06.2019 03:00:00 12,1 10,8 14 8 25 14 W 1015,1 - 0,0
20.06.2019 02:00:00 12,3 10,9 14 8 29 15 W 1015,1 - 0,0
20.06.2019 01:00:00 12,5 11,1 16 9 33 18 W 1014,8 - 0,0
20.06.2019 00:00:00 12,9 11,6 18 10 34 18 W 1014,5 - 0,0
19.06.2019 23:00:00 13,5 12,2 18 10 35 19 W 1014,0 - 0,0
19.06.2019 22:00:00 13,9 12,5 19 11 34 18 W 1013,4 - 0,0
19.06.2019 21:00:00 14,4 12,6 20 11 35 19 W 1012,9 - 0,0
19.06.2019 20:00:00 15,0 12,9 20 11 36 19 W 1012,6 12 0,0
19.06.2019 19:00:00 15,6 12,5 21 11 36 19 W 1012,2 - 0,0
19.06.2019 18:00:00 16,0 13,3 20 11 37 20 W 1012,1 - 0,0
19.06.2019 17:00:00 15,8 12,9 18 10 35 19 W 1012,0 20 0,0
19.06.2019 16:00:00 15,3 12,4 22 12 34 18 W 1011,6 - 0,0
19.06.2019 15:00:00 16,3 13,6 21 11 35 19 W 1011,1 - 0,0
19.06.2019 14:00:00 15,6 13,4 16 9 27 15 W 1011,0 4,0 0,0
19.06.2019 13:00:00 14,7 13,6 16 8 25 13 W 1010,7 - 0,0
19.06.2019 12:00:00 14,6 13,5 15 8 22 12 W 1010,2 - 0,0
19.06.2019 11:00:00 14,2 13,6 10 5 18 10 W 1010,0 4,0 0,0
19.06.2019 10:00:00 14,0 13,5 12 7 19 10 W 1009,7 - 0,0
19.06.2019 09:00:00 14,0 13,7 9 5 21 11 W 1009,0 - 0,0
19.06.2019 08:00:00 13,8 13,6 11 6 22 12 W 1008,6 - 0,0
19.06.2019 07:00:00 13,6 13,4 11 6 17 9 WSW 1008,4 - 0,0
19.06.2019 06:00:00 13,2 13,0 10 5 13 7 WSW 1008,5 - 0,0
19.06.2019 05:00:00 13,4 13,1 0 0 6 3 N 1008,7 - 0,0
19.06.2019 04:00:00 13,4 13,2 3 2 9 5 ESE 1008,8 - 0,0
19.06.2019 03:00:00 13,1 12,9 4 2 7 4 N 1008,7 - 0,0
19.06.2019 02:00:00 13,3 13,0 2 1 9 5 NW 1008,4 - 0,0
19.06.2019 01:00:00 13,7 13,5 8 4 14 8 NNE 1008,9 - 0,0
19.06.2019 00:00:00 13,9 13,7 12 7 18 10 E 1009,4 - 0,0
18.06.2019 23:00:00 13,7 13,5 9 5 12 7 E 1009,8 - 0,0
18.06.2019 22:00:00 14,0 13,7 4 2 16 9 NE 1009,6 - 0,0
18.06.2019 21:00:00 14,4 14,1 10 6 30 16 E 1009,7 - 0,2
18.06.2019 20:00:00 14,9 13,9 3 2 12 7 E 1010,7 6 0,0
18.06.2019 19:00:00 15,7 14,2 7 4 16 9 E 1010,4 - 0,0
18.06.2019 18:00:00 16,6 14,8 9 5 26 14 ENE 1010,1 - 0,0
18.06.2019 17:00:00 15,7 14,1 17 9 28 15 ENE 1010,6 6 0,0
18.06.2019 16:00:00 14,9 13,9 19 11 29 15 NE 1010,9 - 0,0
18.06.2019 15:00:00 14,6 13,6 21 11 27 15 NE 1010,7 - 0,0
18.06.2019 14:00:00 15,2 13,9 16 9 23 13 ENE 1011,2 6 0,0
18.06.2019 13:00:00 15,5 14,2 15 8 25 14 NE 1011,8 - 0,2
18.06.2019 12:00:00 14,6 13,8 11 6 20 11 E 1013,0 - 0,6
18.06.2019 11:00:00 14,2 13,1 14 7 27 14 ENE 1013,0 10 0,0

tt = Température de l'air
td = dewpoint
ff = Vitesse du vent
fx = gusts
dd = Direction du vent
ppp = reduced air pressure
vv = visibility
rr = Quantités de précipitations

stations d'obs. à proximité